Location: Amsterdam
(30.7274°N, 84.4357°W)
Time: 18:22:09
(UTC+00:00)

CUTE-I - Visible Passes

Search period start: 07 March 2026 00:00
Search period end: 17 March 2026 00:00
Orbit: 803 x 819 km, 98.7° (Epoch: 7 March)

Date Brightness Start Highest point End Pass type
(mag) Time Alt. Az. Time Alt. Az. Time Alt. Az.
8 Mar ? 00:31:11 10° SW 00:34:19 16° W 00:37:28 10° WNW visible
8 Mar ? 11:11:03 10° NE 11:15:35 29° E 11:20:06 10° SSE visible
9 Mar ? 00:06:16 10° SSW 00:10:45 28° W 00:15:14 10° NW visible
9 Mar ? 10:48:44 10° NE 10:52:00 17° E 10:55:16 10° SE visible
12 Mar ? 00:38:00 10° WSW 00:40:31 13° W 00:43:03 10° WNW visible
12 Mar ? 11:17:00 10° NE 11:21:45 33° E 11:26:29 10° SSE visible
13 Mar ? 00:12:43 10° SSW 00:16:56 24° W 00:21:09 10° NW visible
13 Mar ? 10:54:29 10° NE 10:58:11 19° E 11:01:53 10° SE visible
14 Mar ? 10:33:53 10° E 10:34:34 10° E 10:35:14 10° E visible
16 Mar ? 00:45:07 10° WSW 00:46:42 11° W 00:48:19 10° WNW visible
